Location: Mount Tamalpais State Park
(37.9108°N, 122.6128°W)
Time: 19:10:59
(UTC-07:00)

Cosmos 1814 Rocket - Visible Passes

Search period start: 28 May 2015 00:00
Search period end: 07 June 2015 00:00
Orbit: 746 x 787 km, 74.1° (Epoch: 28 May)

Date Brightness Start Highest point End Pass type
(mag) Time Alt. Az. Time Alt. Az. Time Alt. Az.
28 May 4.4 22:05:07 10° NNW 22:10:13 58° WSW 22:13:45 20° S visible
29 May 4.0 21:27:35 10° NNW 21:32:49 80° ENE 21:37:24 14° SSE visible
29 May 6.7 23:13:34 10° W 23:14:15 10° W 23:14:33 10° W visible
30 May 4.5 20:50:18 10° N 20:55:18 45° ENE 21:00:19 10° SE visible
30 May 6.2 22:33:17 10° NW 22:37:01 19° W 22:40:35 10° SW visible
31 May 5.4 21:55:02 10° NW 21:59:44 34° WSW 22:04:25 10° SSW visible
01 Jun 4.5 21:17:14 10° NNW 21:22:24 62° WSW 21:27:35 10° S visible
02 Jun 6.7 22:24:49 10° WNW 22:26:27 11° W 22:27:43 10° WSW visible
03 Jun 6.3 21:45:19 10° NW 21:49:13 21° W 21:52:58 10° SW visible
04 Jun 5.5 21:07:07 10° NW 21:11:55 37° WSW 21:16:42 10° SSW visible
06 Jun 6.8 21:36:30 10° WNW 21:38:39 12° W 21:40:28 10° WSW visible
